Regional Weather Roundup
Issued by NWS Newport/Morehead, NC

Current Version | Previous Version | Text Only | Print | Product List | Glossary On
Versions: 1 2 3 4 5 6 7 8 9 10 11 12 13 14 15 16 17 18 19 20 21 22 23 24 25 26 27 28 29 30 31 32 33 34 35 36 37 38 39 40 41 42 43 44 45 46 47 48 49 50
000
ASUS42 KMHX 281222
RWRMHX
WEATHER ROUNDUP FOR EASTERN NORTH CAROLINA
NATIONAL WEATHER SERVICE NEWPORT/MOREHEAD CITY NC
700 AM EST WED JAN 28 2015

NOTE: "FAIR" INDICATES FEW OR NO CLOUDS BELOW 12,000 FEET
WITH NO SIGNIFICANT WEATHER AND/OR OBSTRUCTIONS TO VISIBILITY

NCZ015>017-031-032-045>047-102-103-281300-
NORTH COAST

CITY           SKY/WX    TMP DP  RH WIND       PRES   REMARKS
EDENTON        CLEAR     29  19  65 N12       30.13R WCI  19
ELIZABETH CITY CLEAR     29  17  61 N15       30.12R WCI  18
KITTY HAWK     MOSUNNY   31  22  69 NW7       30.07R
MANTEO         PTCLDY    30  23  74 N12G24    30.09R

$$

NCZ045>047-081-094-103-104-281300-
CENTRAL COAST

CITY           SKY/WX    TMP DP  RH WIND       PRES   REMARKS
FRISCO         MOCLDY    33  24  69 N8        30.07R
SWANQUARTER    NOT AVBL

$$

NCZ095-097-098-100-101-281300-
SOUTHERN COAST

CITY           SKY/WX    TMP DP  RH WIND       PRES   REMARKS
BEAUFORT       CLEAR     31  25  78 N13       30.09R
CEDAR ISLAND   NOT AVBL
JACKSONVILLE   CLEAR     28  18  66 NW10      30.12R WCI  19
PINEY ISLAND     N/A    N/A N/A N/A MISG      30.09R
WILMINGTON     CLEAR     28  18  66 N10       30.13R WCI  19


$$

NCZ011>013-027>030-043-044-078>080-089-090>093-098-281300-
COASTAL PLAIN

CITY           SKY/WX    TMP DP  RH WIND       PRES   REMARKS
AHOSKIE        CLEAR     28  15  58 N6        30.15R
CLINTON        CLEAR     28  18  66 NW5       30.16R
ELIZABETHTOWN  CLEAR     27  17  65 NW3       30.16R
GOLDSBORO      CLEAR     27  22  80 NW3       30.13R
GREENVILLE     CLEAR     30  21  69 N3        30.15R
HAVELOCK       CLEAR     30  22  72 NW8       30.11R
KENANSVILLE    CLEAR     27  18  67 NW5       30.16R
KINSTON        CLEAR     27  19  74 NW3       30.14R
NEW BERN       CLEAR     30  21  69 NW7       30.13R
RICHLANDS      CLEAR     27  16  63 NW5       30.15R
ROCKY MOUNT    CLEAR     28  17  63 NW8       30.15R
WASHINGTON     CLEAR     30  19  64 N8        30.13R
WHITEVILLE     CLEAR     29  17  60 CALM      30.15R

$$

AMZ130-135-150-152-154-156-158-170-250-252-270-ANZ085-086-088-633-658-670-281300-
MARINE OBSERVATIONS

STATION/POSITION TIME  TEMP    WIND        PRES    WAVE   SWELL
                       AIR SEA DIR/SP/G            HT/PER HT/PER
                 (UTC) (F)     (DEG/KT/KT) (MB)    (FT/S) (FT/S)
CHESAPEAKE LIGHT 1200   31     350/ 27/ 29 1019.1
64 E VA BEACH    1200   35 51  350/ 23/ 29 1016.4   11/11   8/11
DUCK             1200   32 42  330/ 21/ 26 1017.8
2 E DUCK         1200      43                N/A     7/12   5/12
10 NE DUCK       1200      45                N/A     9/13   5/13
OREGON INLET     1200   33 42  320/ 13/ 20 1018.4
13E OREGON INLT  1200      45                N/A    10/13   7/13
HATTERAS CG      1200   35 48  360/ 21/ 24 1018.5
DIAMOND BUOY     1200   38 69  340/ 21/ 29 1016.8   10/11  10/11
17 S OCRACOKE    NOT AVBL
CAPE LOOKOUT     1200   34     350/ 16/ 20 1018.6
BEAUFORT LAB     1200   33 48  350/ 10/ 16 1018.0
27 SE WRIGHTSVLE NOT AVBL
5 SE WRIGHTSVLE  1200   34 52  350/ 19/ 23 1019.7
225 S CAPE HAT   1051   57 71  310/ 19/ 27 1014.4   12/13   7/13
41 SE CHARLESTON 1200   44 67  350/ 21/ 27 1019.4    6/ 6   2/12

$$


USA.gov is the U.S. government's official web portal to all federal, state and local government web resources and services.